TimePST,TemperatureF,Dew PointF,Humidity,Sea Level PressureIn,VisibilityMPH,Wind Direction,Wind SpeedMPH,Gust SpeedMPH,PrecipitationIn,Events,Conditions,WindDirDegrees,DateUTC
12:15 AM,48.2,42.8,82,30.12,10.0,North,4.6,-,N/A,,Overcast,350,2013-11-11 08:15:00
12:35 AM,48.2,42.8,82,30.12,10.0,North,4.6,-,N/A,,Overcast,350,2013-11-11 08:35:00
12:55 AM,48.2,42.8,82,30.12,10.0,North,4.6,-,N/A,,Overcast,350,2013-11-11 08:55:00
1:15 AM,48.2,42.8,82,30.12,10.0,North,-9999.0,-,N/A,,Overcast,0,2013-11-11 09:15:00
1:35 AM,48.2,42.8,82,30.12,10.0,North,3.5,-,N/A,,Overcast,10,2013-11-11 09:35:00
1:55 AM,48.2,42.8,82,30.12,10.0,Calm,Calm,-,N/A,,Overcast,0,2013-11-11 09:55:00
2:15 AM,48.2,42.8,82,30.13,10.0,Calm,Calm,-,N/A,,Overcast,0,2013-11-11 10:15:00
2:35 AM,46.4,42.8,87,30.14,10.0,Calm,Calm,-,N/A,,Overcast,0,2013-11-11 10:35:00
2:55 AM,46.4,42.8,87,30.14,10.0,Calm,Calm,-,N/A,,Overcast,0,2013-11-11 10:55:00
3:15 AM,46.4,42.8,87,30.13,10.0,East,3.5,-,N/A,,Overcast,80,2013-11-11 11:15:00
3:35 AM,46.4,42.8,87,30.12,10.0,Calm,Calm,-,N/A,,Overcast,0,2013-11-11 11:35:00
3:55 AM,46.4,42.8,87,30.14,10.0,Calm,Calm,-,N/A,,Overcast,0,2013-11-11 11:55:00
4:15 AM,46.4,42.8,87,30.15,10.0,Calm,Calm,-,N/A,,Overcast,0,2013-11-11 12:15:00
4:35 AM,46.4,42.8,87,30.15,10.0,Calm,Calm,-,N/A,,Overcast,0,2013-11-11 12:35:00
4:55 AM,46.4,42.8,87,30.15,10.0,Calm,Calm,-,N/A,,Overcast,0,2013-11-11 12:55:00
5:15 AM,46.4,42.8,87,30.16,10.0,Calm,Calm,-,N/A,,Overcast,0,2013-11-11 13:15:00
5:35 AM,46.4,42.8,87,30.15,10.0,Calm,Calm,-,N/A,,Overcast,0,2013-11-11 13:35:00
5:55 AM,46.4,42.8,87,30.15,10.0,Calm,Calm,-,N/A,,Overcast,0,2013-11-11 13:55:00
6:15 AM,46.4,42.8,87,30.16,10.0,Calm,Calm,-,N/A,,Overcast,0,2013-11-11 14:15:00
6:35 AM,46.4,42.8,87,30.17,10.0,Calm,Calm,-,N/A,,Overcast,0,2013-11-11 14:35:00
6:55 AM,46.4,42.8,87,30.18,10.0,Calm,Calm,-,N/A,,Overcast,0,2013-11-11 14:55:00
7:15 AM,46.4,42.8,87,30.17,10.0,Calm,Calm,-,N/A,,Overcast,0,2013-11-11 15:15:00
7:35 AM,46.4,42.8,87,30.19,10.0,Calm,Calm,-,N/A,,Overcast,0,2013-11-11 15:35:00
7:55 AM,46.4,42.8,87,30.19,10.0,Calm,Calm,-,N/A,,Overcast,0,2013-11-11 15:55:00
8:15 AM,46.4,42.8,87,30.18,10.0,Calm,Calm,-,N/A,,Overcast,0,2013-11-11 16:15:00
8:35 AM,46.4,42.8,87,30.19,10.0,Calm,Calm,-,N/A,,Overcast,0,2013-11-11 16:35:00
8:55 AM,48.2,42.8,82,30.20,10.0,NNW,4.6,-,N/A,,Overcast,340,2013-11-11 16:55:00
9:15 AM,48.2,42.8,82,30.19,10.0,Calm,Calm,-,N/A,,Overcast,0,2013-11-11 17:15:00
9:35 AM,48.2,42.8,82,30.17,5.0,NNE,3.5,-,N/A,,Scattered Clouds,20,2013-11-11 17:35:00
9:55 AM,48.2,42.8,82,30.17,10.0,Calm,Calm,-,N/A,,Scattered Clouds,0,2013-11-11 17:55:00
10:15 AM,50.0,42.8,76,30.16,10.0,Calm,Calm,-,N/A,,Mostly Cloudy,0,2013-11-11 18:15:00
10:35 AM,50.0,42.8,76,30.15,10.0,Calm,Calm,-,N/A,,Partly Cloudy,0,2013-11-11 18:35:00
10:55 AM,51.8,42.8,71,30.17,10.0,Calm,Calm,-,N/A,,Clear,0,2013-11-11 18:55:00
11:15 AM,51.8,42.8,71,30.17,10.0,NNW,3.5,-,N/A,,Clear,330,2013-11-11 19:15:00
11:35 AM,51.8,44.6,76,30.15,10.0,North,4.6,-,N/A,,Clear,360,2013-11-11 19:35:00
11:55 AM,53.6,44.6,72,30.14,10.0,West,4.6,-,N/A,,Clear,280,2013-11-11 19:55:00
12:15 PM,55.4,42.8,63,30.13,10.0,North,-9999.0,-,N/A,,Clear,0,2013-11-11 20:15:00
12:35 PM,55.4,44.6,67,30.11,10.0,Calm,Calm,-,N/A,,Clear,0,2013-11-11 20:35:00
12:55 PM,57.2,44.6,63,30.10,10.0,Calm,Calm,-,N/A,,Clear,0,2013-11-11 20:55:00
1:15 PM,59.0,44.6,59,30.10,10.0,North,-9999.0,-,N/A,,Clear,0,2013-11-11 21:15:00
1:35 PM,57.2,44.6,63,30.10,10.0,North,-9999.0,-,N/A,,Clear,0,2013-11-11 21:35:00
1:55 PM,59.0,44.6,59,30.08,10.0,North,-9999.0,-,N/A,,Clear,0,2013-11-11 21:55:00
2:15 PM,60.8,44.6,55,30.08,10.0,North,-9999.0,-,N/A,,Clear,0,2013-11-11 22:15:00
2:35 PM,60.8,44.6,55,30.07,10.0,North,-9999.0,-,N/A,,Clear,0,2013-11-11 22:35:00
2:55 PM,60.8,44.6,55,30.07,10.0,North,-9999.0,-,N/A,,Clear,0,2013-11-11 22:55:00
3:15 PM,60.8,42.8,52,30.06,10.0,North,-9999.0,-,N/A,,Clear,0,2013-11-11 23:15:00
3:35 PM,59.0,42.8,55,30.06,7.0,SSE,3.5,-,N/A,,Clear,150,2013-11-11 23:35:00
3:55 PM,59.0,44.6,59,30.07,10.0,Calm,Calm,-,N/A,,Clear,0,2013-11-11 23:55:00
4:15 PM,57.2,42.8,59,30.06,10.0,North,-9999.0,-,N/A,,Clear,0,2013-11-12 00:15:00
4:35 PM,57.2,41.0,55,30.06,10.0,North,-9999.0,-,N/A,,Clear,0,2013-11-12 00:35:00
4:55 PM,55.4,42.8,63,30.07,10.0,North,-9999.0,-,N/A,,Clear,0,2013-11-12 00:55:00
5:15 PM,53.6,41.0,62,30.08,10.0,North,-9999.0,-,N/A,,Clear,0,2013-11-12 01:15:00
5:35 PM,53.6,39.2,58,30.07,10.0,North,-9999.0,-,N/A,,Clear,0,2013-11-12 01:35:00
5:55 PM,53.6,39.2,58,30.07,10.0,North,-9999.0,-,N/A,,Clear,0,2013-11-12 01:55:00
6:15 PM,51.8,41.0,67,30.07,10.0,North,-9999.0,-,N/A,,Clear,0,2013-11-12 02:15:00
6:35 PM,51.8,41.0,67,30.06,10.0,North,-9999.0,-,N/A,,Clear,0,2013-11-12 02:35:00
6:55 PM,50.0,39.2,66,30.06,10.0,North,-9999.0,-,N/A,,Clear,0,2013-11-12 02:55:00
7:15 PM,48.2,41.0,76,30.06,10.0,Calm,Calm,-,N/A,,Clear,0,2013-11-12 03:15:00
7:35 PM,46.4,42.8,87,30.06,10.0,North,-9999.0,-,N/A,,Clear,0,2013-11-12 03:35:00
7:55 PM,46.4,42.8,87,30.06,10.0,North,-9999.0,-,N/A,,Clear,0,2013-11-12 03:55:00
8:15 PM,46.4,42.8,87,30.05,10.0,Calm,Calm,-,N/A,,Clear,0,2013-11-12 04:15:00
8:35 PM,48.2,42.8,82,30.05,10.0,Calm,Calm,-,N/A,,Clear,0,2013-11-12 04:35:00
8:55 PM,46.4,42.8,87,30.05,10.0,Calm,Calm,-,N/A,,Clear,0,2013-11-12 04:55:00
9:15 PM,46.4,42.8,87,30.05,10.0,Calm,Calm,-,N/A,,Clear,0,2013-11-12 05:15:00
9:35 PM,46.4,42.8,87,30.06,10.0,NNE,3.5,-,N/A,,Clear,30,2013-11-12 05:35:00
9:55 PM,46.4,42.8,87,30.05,10.0,North,3.5,-,N/A,,Clear,10,2013-11-12 05:55:00
10:15 PM,46.4,41.0,81,30.05,10.0,North,-9999.0,-,N/A,,Clear,0,2013-11-12 06:15:00
10:35 PM,46.4,41.0,81,30.06,10.0,North,-9999.0,-,N/A,,Clear,0,2013-11-12 06:35:00
10:55 PM,46.4,42.8,87,30.06,10.0,North,-9999.0,-,N/A,,Clear,0,2013-11-12 06:55:00
11:15 PM,46.4,42.8,87,30.08,10.0,North,-9999.0,-,N/A,,Clear,0,2013-11-12 07:15:00
11:35 PM,46.4,42.8,87,30.09,10.0,North,-9999.0,-,N/A,,Clear,0,2013-11-12 07:35:00
11:55 PM,46.4,42.8,87,30.09,10.0,North,-9999.0,-,N/A,,Clear,0,2013-11-12 07:55:00